N5MDT Weather Reports


Display with metric or nautical units.
time (UTC)temp
F
wind
direction
speed
MPH
gust
MPH
rain 1hr
in
rain 24hr
in
rain mn
in
humidity
%
barometer
mb
20260510194843 91 111 2.0 6.0 0.00 0.00 0.00 61 1014.1
20260510193843 90 82 0.0 7.0 0.00 0.00 0.00 64 1014.0
20260510192842 89 96 1.0 6.0 0.00 0.00 0.00 65 1014.0
20260510191842 88 116 2.0 7.0 0.00 0.00 0.00 66 1014.0
20260510190842 88 130 5.0 6.0 0.00 0.00 0.00 65 1013.8
20260510185842 88 101 1.0 8.0 0.00 0.00 0.00 67 1013.9
20260510184842 87 25 0.0 3.0 0.00 0.00 0.00 67 1014.0
20260510183842 87 40 0.0 7.0 0.00 0.00 0.00 69 1014.0
20260510182842 87 146 4.0 5.0 0.00 0.00 0.00 69 1014.0
20260510181842 86 113 0.0 7.0 0.00 0.00 0.00 70 1014.2
20260510180842 86 91 0.0 8.0 0.00 0.00 0.00 70 1014.3
20260510175841 86 82 8.0 8.0 0.00 0.00 0.00 70 1014.4
20260510174841 85 107 0.0 8.0 0.00 0.00 0.00 71 1014.5
20260510173841 85 96 4.0 7.0 0.00 0.00 0.00 71 1014.6
20260510172841 85 202 3.0 9.0 0.00 0.00 0.00 73 1014.7
20260510171841 84 114 8.0 10.0 0.00 0.00 0.00 71 1014.8
20260510170841 84 71 2.0 11.0 0.00 0.00 0.00 75 1014.9
20260510165841 83 114 1.0 9.0 0.00 0.00 0.00 74 1015.1
20260510164841 83 221 2.0 9.0 0.00 0.00 0.00 75 1015.0
20260510163841 82 125 4.0 8.0 0.00 0.00 0.00 76 1015.2
20260510162841 82 118 3.0 9.0 0.00 0.00 0.00 77 1015.3
20260510161841 81 157 5.0 10.0 0.00 0.00 0.00 78 1015.4
20260510160841 81 179 1.0 10.0 0.00 0.00 0.00 79 1015.4
20260510155841 80 35 0.0 9.0 0.00 0.00 0.00 80 1015.3
20260510154840 79 88 2.0 8.0 0.00 0.00 0.00 82 1015.4
20260510153841 79 123 2.0 8.0 0.00 0.00 0.00 83 1015.5
20260510152841 78 102 3.0 10.0 0.00 0.00 0.00 83 1015.7
20260510151840 78 80 0.0 7.0 0.00 0.00 0.00 84 1015.8
20260510150840 77 132 1.0 7.0 0.00 0.00 0.00 85 1015.7
20260510145840 76 90 2.0 6.0 0.00 0.00 0.00 86 1015.8
20260510144840 76 194 1.0 6.0 0.00 0.00 0.00 87 1015.7
20260510143840 76 162 2.0 4.0 0.00 0.00 0.00 87 1015.6
20260510142845 76 79 0.0 1.0 0.00 0.00 0.00 87 1016.0
20260510141840 76 96 0.0 6.0 0.00 0.00 0.00 88 1016.2
20260510140840 75 43 0.0 3.0 0.00 0.00 0.00 88 1016.3
20260510135840 75 80 0.0 3.0 0.00 0.00 0.00 89 1016.2
20260510134839 75 54 0.0 1.0 0.00 0.00 0.00 89 1016.3
20260510133840 75 54 0.0 2.0 0.00 0.00 0.00 89 1016.3
20260510132839 75 62 0.0 1.0 0.00 0.00 0.00 89 1016.3
20260510131839 74 62 0.0 2.0 0.00 0.00 0.00 89 1015.9
20260510130839 74 67 0.0 0.0 0.00 0.00 0.00 89 1016.1
20260510125839 74 96 0.0 0.0 0.00 0.00 0.00 89 1015.6
20260510124839 74 96 0.0 0.0 0.00 0.00 0.00 89 1015.4
20260510123839 74 96 0.0 0.0 0.00 0.00 0.00 89 1015.1
20260510122839 74 96 0.0 0.0 0.00 0.00 0.00 89 1014.8
20260510121838 73 96 0.0 0.0 0.00 0.00 0.00 88 1014.6
20260510120838 73 96 0.0 2.0 0.00 0.00 0.00 88 1014.3
20260510115839 73 96 0.0 1.0 0.00 0.00 0.00 88 1014.0
20260510114838 73 96 0.0 2.0 0.00 0.00 0.00 88 1013.9
20260510113838 73 96 0.0 0.0 0.00 0.00 0.00 88 1013.8
20260510112838 73 96 0.0 0.0 0.00 0.00 0.00 88 1013.6
20260510111838 73 96 0.0 0.0 0.00 0.00 0.00 88 1013.5
20260510110853 73 96 0.0 0.0 0.00 0.00 0.00 88 1013.5
20260510105838 73 96 0.0 1.0 0.00 0.00 0.00 88 1013.2
20260510104838 73 96 0.0 4.0 0.00 0.00 0.00 88 1013.0
20260510103838 73 94 3.0 3.0 0.00 0.00 0.00 88 1012.8
20260510102838 73 105 0.0 0.0 0.00 0.00 0.00 87 1012.6
20260510101837 72 91 0.0 0.0 0.00 0.00 0.00 87 1012.3
20260510100853 72 103 0.0 0.0 0.00 0.00 0.00 87 1012.2
20260510095837 72 103 0.0 1.0 0.00 0.00 0.00 86 1012.1
20260510094838 72 103 0.0 2.0 0.00 0.00 0.00 86 1011.9
20260510093837 72 109 2.0 3.0 0.00 0.00 0.00 86 1011.9
20260510092837 73 119 0.0 0.0 0.00 0.00 0.00 86 1011.9
20260510091837 73 119 0.0 0.0 0.00 0.00 0.00 86 1011.8
20260510090852 73 119 0.0 2.0 0.00 0.00 0.00 86 1011.8
20260510085837 73 90 0.0 4.0 0.00 0.00 0.00 86 1011.7
20260510084837 73 101 2.0 2.0 0.00 0.00 0.00 86 1011.6
20260510083837 73 127 0.0 2.0 0.00 0.00 0.00 85 1011.5
20260510082837 73 172 1.0 4.0 0.00 0.00 0.00 85 1011.6
20260510081837 73 124 1.0 4.0 0.00 0.00 0.00 85 1011.9
20260510080836 73 146 0.0 0.0 0.00 0.00 0.00 85 1011.9
20260510075837 73 146 0.0 0.0 0.00 0.00 0.00 84 1011.9
20260510074837 73 146 0.0 4.0 0.00 0.00 0.00 85 1012.0
20260510073836 73 103 0.0 0.0 0.00 0.00 0.00 84 1011.9
20260510072836 73 103 0.0 2.0 0.00 0.00 0.00 84 1011.9
20260510071836 73 125 0.0 3.0 0.00 0.00 0.00 84 1011.9
20260510070836 74 134 1.0 4.0 0.00 0.00 0.00 83 1011.9
20260510065836 74 157 0.0 2.0 0.00 0.00 0.00 83 1012.1
20260510064836 74 94 1.0 3.0 0.00 0.00 0.00 83 1012.1
20260510063836 74 115 0.0 5.0 0.00 0.00 0.00 83 1012.1
20260510062835 74 159 0.0 5.0 0.00 0.00 0.00 83 1012.3
20260510061836 74 199 2.0 5.0 0.00 0.00 0.00 82 1012.4
20260510060835 74 132 2.0 7.0 0.00 0.00 0.00 82 1012.4
20260510055836 74 163 1.0 7.0 0.00 0.00 0.00 81 1012.4
20260510054835 75 69 2.0 4.0 0.00 0.00 0.00 81 1012.5
20260510053835 75 104 0.0 1.0 0.00 0.00 0.00 81 1012.7
20260510052835 75 104 0.0 7.0 0.00 0.00 0.00 80 1012.6
20260510051835 75 92 2.0 7.0 0.00 0.00 0.00 80 1012.7
20260510050835 75 75 1.0 11.0 0.00 0.00 0.00 79 1012.5
20260510045835 75 87 2.0 7.0 0.00 0.00 0.00 79 1012.6
20260510044835 75 90 2.0 10.0 0.00 0.00 0.00 78 1012.6
20260510043835 75 130 3.0 4.0 0.00 0.00 0.00 77 1012.8
20260510042824 75 93 8.0 8.0 0.00 0.00 0.00 77 1012.7
20260510041824 75 178 4.0 9.0 0.00 0.00 0.00 77 1012.5
20260510040824 76 186 4.0 8.0 0.00 0.00 0.00 76 1012.5
20260510035824 76 92 1.0 9.0 0.00 0.00 0.00 76 1012.4
20260510034823 76 102 4.0 12.0 0.00 0.00 0.00 76 1012.6
20260510033853 76 152 4.0 8.0 0.00 0.00 0.00 76 1012.5
20260510032823 77 69 5.0 11.0 0.00 0.00 0.00 75 1012.6
20260510031823 78 178 3.0 12.0 0.00 0.00 0.00 75 1012.8
20260510030823 78 84 3.0 12.0 0.00 0.00 0.00 73 1012.4
20260510025823 80 105 9.0 18.0 0.00 0.00 0.00 72 1012.4
20260510024838 81 74 14.0 18.0 0.00 0.00 0.00 72 1012.3
20260510023853 83 97 3.0 3.0 0.00 0.00 0.00 74 1011.8
20260510022823 83 89 0.0 3.0 0.00 0.00 0.00 73 1011.0
20260510021823 83 136 1.0 7.0 0.00 0.00 0.00 73 1010.8
20260510020823 83 106 0.0 4.0 0.00 0.00 0.00 74 1010.8
20260510015823 84 152 0.0 0.0 0.00 0.00 0.00 74 1010.6
20260510014823 84 152 0.0 0.0 0.00 0.00 0.00 74 1010.4
20260510013822 84 152 0.0 0.0 0.00 0.00 0.00 73 1010.3
20260510012822 85 152 0.0 0.0 0.00 0.00 0.00 72 1010.2
20260510011822 86 152 0.0 0.0 0.00 0.00 0.00 72 1009.9
20260510010908 87 152 0.0 0.0 0.00 0.00 0.00 70 1009.8
20260510005822 88 152 0.0 0.0 0.00 0.00 0.00 70 1009.6
20260510004822 89 152 0.0 0.0 0.00 0.00 0.00 69 1009.4
20260510003852 89 152 0.0 0.0 0.00 0.00 0.00 67 1009.3
20260510002907 89 152 0.0 0.0 0.00 0.00 0.00 68 1009.3
20260510001852 90 152 0.0 0.0 0.00 0.00 0.00 67 1009.2
20260510000822 90 152 0.0 3.0 0.00 0.00 0.00 66 1009.0
20260509235821 90 107 1.0 2.0 0.00 0.00 0.00 64 1008.8
20260509234851 91 107 0.0 2.0 0.00 0.00 0.00 65 1008.8
20260509233852 92 107 0.0 1.0 0.00 0.00 0.00 64 1009.0
20260509232821 93 107 1.0 2.0 0.00 0.00 0.00 62 1009.1
20260509231821 94 117 0.0 3.0 0.00 0.00 0.00 62 1009.1
20260509230821 94 174 0.0 2.0 0.00 0.00 0.00 62 1009.0
20260509225821 94 113 0.0 0.0 0.00 0.00 0.00 63 1009.0
20260509224821 93 61 0.0 0.0 0.00 0.00 0.00 63 1009.0
20260509223821 94 61 0.0 1.0 0.00 0.00 0.00 62 1009.0
20260509222821 94 61 0.0 1.0 0.00 0.00 0.00 63 1008.8
20260509221821 93 61 0.0 0.0 0.00 0.00 0.00 64 1008.9
20260509220850 93 61 0.0 0.0 0.00 0.00 0.00 64 1008.9
20260509215850 92 61 0.0 0.0 0.00 0.00 0.00 66 1009.1
20260509214850 93 51 0.0 0.0 0.00 0.00 0.00 66 1009.0
20260509213906 92 60 0.0 1.0 0.00 0.00 0.00 66 1008.9
20260509212820 92 113 1.0 1.0 0.00 0.00 0.00 66 1009.0
20260509211850 92 113 0.0 1.0 0.00 0.00 0.00 64 1009.0
20260509210820 93 113 0.0 1.0 0.00 0.00 0.00 62 1009.0
20260509205820 92 113 1.0 4.0 0.00 0.00 0.00 61 1009.2
20260509204820 92 288 0.0 2.0 0.00 0.00 0.00 62 1009.4
20260509203819 92 167 0.0 4.0 0.00 0.00 0.00 70 1009.6
20260509202820 90 193 0.0 3.0 0.00 0.00 0.00 72 1009.7
20260509201850 89 5 0.0 0.0 0.00 0.00 0.00 74 1009.7
20260509200819 88 50 0.0 0.0 0.00 0.00 0.00 75 1009.7
20260509195819 87 64 0.0 0.0 0.00 0.00 0.00 77 1009.8